Powrót do katalogu

GEN1A-2

AktywnyNaukaSSO
NORAD 69005·PAYLOAD·🇺🇸 United States

Wystrzelony May 3, 2026 z Vandenberg Space Force Base

Loading…

Następne Przeloty (najbliższe 24 godziny)

TLE

ŚwieżeSource: Space-Track

Epoka: Sep 14, 2026, 15:47 UTC

1 69005U 26100AB  26257.65767875  .00002817  00000-0  13086-3 0  9991
2 69005  97.3902 153.8050 0006834  70.9374 289.2601 15.20790260 20412

Śledź GEN1A-2 w czasie rzeczywistym z AllMySat

Download on the App Store